Location: Newark
(15.5700°N, 75.3700°E)
Time: 12:27:05
(UTC+00:00)

ISS - Pass Details

Date: 18 November 2019
Orbit: 411 x 421 km, 51.6° (Epoch: 11 December)

Event Time Altitude Azimuth Distance (km) Brightness Sun altitude
Rises 12:37:38 0° 205° (SSW) 2,333 0.8 -3.7°
Reaches altitude 10° 12:39:47 10° 197° (SSW) 1,475 -0.4 -4.2°
Maximum altitude 12:42:55 40° 126° (SE) 621 -3.1 -4.9°
Drops below altitude 10° 12:46:04 10° 55° (NE) 1,483 -1.6 -5.6°
Enters shadow 12:46:54 - 51° (NE) 1,811 -1.1 -5.8°
